Regional Weather Roundup
Issued by NWS Green Bay, WI

Home | Current Version | Previous Version | Graphics & Text | Print | Product List | Glossary Off
Versions: 1 2 3 4 5 6 7 8 9 10 11 12 13 14 15 16 17 18 19 20 21 22 23 24 25 26 27 28 29 30 31 32 33 34 35 36 37 38 39 40 41 42 43 44 45 46 47 48 49 50

000
ASUS43 KGRB 281400
RWRGRB

NORTH-CENTRAL AND NORTHEAST WISCONSIN REGIONAL WEATHER ROUNDUP
NATIONAL WEATHER SERVICE GREEN BAY WI
900 AM CDT WED SEP 28 2016

WIZ005-009-010>012-018-019-281500-
NORTH CENTRAL WISCONSIN

CITY           SKY/WX    TMP DP  RH WIND       PRES   REMARKS
IRONWOOD       PTSUNNY   55  52  89 NE9       30.07R
MANITOWISH WTR NOT AVBL
ARBOR VITAE    NOT AVBL
EAGLE RIVER    NOT AVBL
LAND O LAKES   NOT AVBL
RHINELANDER    CLOUDY    52  51  97 NE8G18    30.00R
PHILLIPS       NOT AVBL
ANTIGO         NOT AVBL
TOMAHAWK       NOT AVBL
MERRILL        NOT AVBL
$$

WIZ013-073-281500-
NORTHEAST WISCONSIN

CITY           SKY/WX    TMP DP  RH WIND       PRES   REMARKS
IRON MOUNTAIN  CLOUDY    52  48  86 NE7       29.99R
MARINETTE      PTSUNNY   52  51  97 N9        29.96R
$$

WIZ017-030-035>037-045-281500-
CENTRAL WISCONSIN

CITY           SKY/WX    TMP DP  RH WIND       PRES   REMARKS
MEDFORD        NOT AVBL
WAUSAU         MOSUNNY   54  49  83 N8        29.95R
MOSINEE        NOT AVBL
MARSHFIELD     CLOUDY    54  49  83 N8        29.96R
WISC RAPIDS    CLOUDY    54  51  90 N7        29.96R
STEVENS POINT  NOT AVBL
WAUPACA        NOT AVBL
SHAWANO        NOT AVBL
CLINTONVILLE   NOT AVBL
WAUTOMA        CLOUDY    53  50  89 N8        29.94R
$$

WIZ038-039-048-051-281500-
FOX VALLEY

CITY           SKY/WX    TMP DP  RH WIND       PRES   REMARKS
NWS GREEN BAY  PTSUNNY   52  52 100 N10       29.91R
APPLETON       PTSUNNY   54  52  94 N9        29.90R
OSHKOSH        CLOUDY    53  48  83 N12       29.91R
FOND DU LAC    CLOUDY    53  50  89 N9        29.91R
$$

WIZ022-050-052-281500-
EAST CENTRAL WISCONSIN

CITY           SKY/WX    TMP DP  RH WIND       PRES   REMARKS
EPHRAIM        NOT AVBL
WASHINGTON ISL NOT AVBL
STURGEON BAY   PTSUNNY   54  52  93 NE7       29.94R
MANITOWOC      NOT AVBL
SHEBOYGAN      CLOUDY    52  50  93 NW7       29.89R
$$

LMZ563-521-522-541>543-281500-
LAKESHORE

STATION/POSITION TIME  TEMP    WIND        PRES    VSBY  WAVE
                       AIR SEA DIR/SP/G                  HT/PER
                 (UTC) (F)     (DEG/KT/KT) (MB)    (MI)  (FT/S)
SHEBOYGAN LKSHOR 1300   51     330/  9/ 12 1011.3R
KEWAUNEE LKSHORE 1300   52     360/  4/  8 1011.1R
NORTHPORT PIER   1300   58      80/ 11/ 14 1013.2
N MID LAKE BUOY  1250   58 66  100/ 14/ 17 1012.5R         2/ 5
CHAMBERS ISLAND  1300   58      50/ 10/ 13 1012.5R
MENOMINEE LKSHOR 1300   53     360/ 15/ 17 1012.0R
$$




USA.gov is the U.S. government's official web portal to all federal, state and local government web resources and services.